Flag for U.S.A. Weather past 2 weeks in Oceanside, California, U.S.A.

Now
62 °F

Overcast.


Feels Like: 62 °F
Forecast: 55 / 65 °F
Wind: No wind

Location: Oceanside Weather Reporting Station

Current Time: Jan 30, 2015 at 10:11:25 AM

Latest Report: Jan 30, 2015 at 9:52 AM


Visibility: 10 mi

Pressure: 29.92 "Hg

Humidity: 67%

Dew point: 51 °F

Location of OceansideLocation

Historic Weather in Oceanside — Graph

°F

Oceanside temperature yesterday

Maximum temperature yesterday: 71 °F (at 12:52 PM)
Minimum temperature yesterday: 56 °F (at 3:52 AM)
Average temperature yesterday: 61 °F

Past Weeks' High & Low Weather Summary

 TemperatureHumidityPressure
High81 °F (Jan 24, 12:52 PM)97% (Jan 19, 3:52 AM)30.24 "Hg (Jan 19, 3:52 AM)
Low39 °F (Jan 19, 4:52 AM)13% (Jan 24, 1:52 PM)29.90 "Hg (Jan 30, 5:52 AM)
Average56 °F66%30.08 "Hg
* Reported Jan 15 8:52 AM — Jan 30 8:52 AM, Oceanside, Weather by CustomWeather, © 2014

Note: Actual official high and low records may vary slightly from our data, if they occured in-between our weather recording intervals... More about our weather records

Advertising

Oceanside weather history for previous 24 hours

 ConditionsComfort  
Time TempWeatherWind HumidityBarometerVisibility
8:52 AM
Jan 30
60 °FOvercast.No wind69%29.91 "Hg10 mi
7:52 AM57 °FOvercast.No wind81%29.90 "Hg10 mi
6:52 AM58 °FOvercast.3 mph72%29.90 "Hg10 mi
5:52 AM57 °FOvercast.No wind78%29.90 "Hg10 mi
4:52 AM55 °FOvercast.3 mph87%29.91 "Hg10 mi
3:52 AM56 °FMostly cloudy.No wind84%29.91 "Hg10 mi
2:52 AM57 °FOvercast.No wind78%29.93 "Hg10 mi
1:52 AM57 °FOvercast.No wind81%29.94 "Hg10 mi
12:52 AM57 °FOvercast.No wind81%29.96 "Hg10 mi
11:52 PM
Jan 29
58 °FOvercast.No wind78%29.97 "Hg10 mi
10:52 PM59 °FOvercast.3 mph75%29.99 "Hg10 mi
9:52 PM60 °FOvercast.No wind72%30.00 "Hg10 mi
8:52 PM60 °FOvercast.No wind75%30.00 "Hg10 mi
7:52 PM61 °FOvercast.No wind72%30.00 "Hg10 mi
6:52 PM61 °FMostly cloudy.3 mph72%30.01 "Hg10 mi
5:52 PM63 °FOvercast.3 mph68%29.99 "Hg10 mi
4:52 PM64 °FOvercast.3 mph68%29.98 "Hg10 mi
3:52 PM65 °FOvercast.6 mph61%29.99 "Hg10 mi
2:52 PM66 °FOvercast.5 mph54%29.99 "Hg10 mi
1:52 PM70 °FPartly sunny.7 mph46%29.98 "Hg10 mi
12:52 PM71 °FSunny.No wind41%29.99 "Hg10 mi
11:52 AM67 °FPassing clouds.3 mph51%30.02 "Hg10 mi
10:52 AM65 °FPassing clouds.No wind54%30.05 "Hg10 mi
Weather by CustomWeather, © 2014

See weather overviewHow to use our weather pages